Year,Month,Day,Hour,Minute,Value (Times are PST for temperature in C)
2007,07,18,06,51,15.00
2007,07,18,06,52,15.00
2007,07,18,06,53,15.00
2007,07,18,06,54,15.00
2007,07,18,06,55,15.00
2007,07,18,06,56,15.10
2007,07,18,06,57,15.10
2007,07,18,06,58,15.10
2007,07,18,06,59,15.10
2007,07,18,07,00,15.20
2007,07,18,07,01,15.20
2007,07,18,07,02,15.20
2007,07,18,07,03,15.20
2007,07,18,07,04,15.30
2007,07,18,07,05,15.30
2007,07,18,07,06,15.30
2007,07,18,07,07,15.30
2007,07,18,07,08,15.30
2007,07,18,07,09,15.30
2007,07,18,07,10,15.30
2007,07,18,07,11,15.40
2007,07,18,07,12,15.40
2007,07,18,07,13,15.40
2007,07,18,07,14,15.50
2007,07,18,07,15,15.50
2007,07,18,07,16,15.50
2007,07,18,07,17,15.50
2007,07,18,07,18,15.50
2007,07,18,07,19,15.60
2007,07,18,07,20,15.60
2007,07,18,07,21,15.60
2007,07,18,07,22,15.60
2007,07,18,07,23,15.60
2007,07,18,07,24,15.60
2007,07,18,07,25,15.60
2007,07,18,07,26,15.60
2007,07,18,07,27,15.70
2007,07,18,07,28,15.70
2007,07,18,07,29,15.70
2007,07,18,07,30,15.70
2007,07,18,07,31,15.70
2007,07,18,07,32,15.70
2007,07,18,07,33,15.80
2007,07,18,07,34,15.80
2007,07,18,07,35,15.80
2007,07,18,07,36,15.80
2007,07,18,07,37,15.80
2007,07,18,07,38,15.90
2007,07,18,07,39,15.90
2007,07,18,07,40,15.90
2007,07,18,07,41,15.90
2007,07,18,07,42,16.00
2007,07,18,07,43,16.00
2007,07,18,07,44,16.00
2007,07,18,07,45,16.10
2007,07,18,07,46,16.10
2007,07,18,07,47,16.10
2007,07,18,07,48,16.10
2007,07,18,07,49,16.10
2007,07,18,07,50,16.10
2007,07,18,07,51,16.10
2007,07,18,07,52,16.10
2007,07,18,07,53,16.10
2007,07,18,07,54,16.20
2007,07,18,07,55,16.20
2007,07,18,07,56,16.20
2007,07,18,07,57,16.20
2007,07,18,07,58,16.20
2007,07,18,07,59,16.20
2007,07,18,08,00,16.20
2007,07,18,08,01,16.20
2007,07,18,08,02,16.20
2007,07,18,08,03,16.30
2007,07,18,08,04,16.30
2007,07,18,08,05,16.30
2007,07,18,08,06,16.30
2007,07,18,08,07,16.30
2007,07,18,08,08,16.30
2007,07,18,08,09,16.30
2007,07,18,08,10,16.30
2007,07,18,08,11,16.30
2007,07,18,08,12,16.30
2007,07,18,08,13,16.40
2007,07,18,08,14,16.40
2007,07,18,08,15,16.40
2007,07,18,08,16,16.40
2007,07,18,08,17,16.40
2007,07,18,08,18,16.50
2007,07,18,08,19,16.50
2007,07,18,08,20,16.50
2007,07,18,08,21,16.60
2007,07,18,08,22,16.60
2007,07,18,08,23,16.60
2007,07,18,08,24,16.60
2007,07,18,08,25,16.60
2007,07,18,08,26,16.60
2007,07,18,08,27,16.70
2007,07,18,08,28,16.70
2007,07,18,08,29,16.70
2007,07,18,08,30,16.70
2007,07,18,08,31,16.70
2007,07,18,08,32,16.70
2007,07,18,08,33,16.70
2007,07,18,08,34,16.70
2007,07,18,08,35,16.70
2007,07,18,08,36,16.70
2007,07,18,08,37,16.70
2007,07,18,08,38,16.70
2007,07,18,08,39,16.70
2007,07,18,08,40,16.70
2007,07,18,08,41,16.70
2007,07,18,08,42,16.70
2007,07,18,08,43,16.70
2007,07,18,08,44,16.70
2007,07,18,08,45,16.70
2007,07,18,08,46,16.70
2007,07,18,08,47,16.70
2007,07,18,08,48,16.70
2007,07,18,08,49,16.70
2007,07,18,08,50,16.70
2007,07,18,08,51,16.70
2007,07,18,08,52,16.70
2007,07,18,08,53,16.70
2007,07,18,08,54,16.70
2007,07,18,08,55,16.70
2007,07,18,08,56,16.70
2007,07,18,08,57,16.70
2007,07,18,08,58,16.70
2007,07,18,08,59,16.80
2007,07,18,09,00,16.80
2007,07,18,09,01,16.80
2007,07,18,09,02,16.80
2007,07,18,09,03,16.80
2007,07,18,09,04,16.80
2007,07,18,09,05,16.80
2007,07,18,09,06,16.90
2007,07,18,09,07,16.90
2007,07,18,09,08,16.90
2007,07,18,09,09,16.90
2007,07,18,09,10,17.00
2007,07,18,09,11,17.00
2007,07,18,09,12,17.00
2007,07,18,09,13,17.00
2007,07,18,09,14,17.00
2007,07,18,09,15,17.00
2007,07,18,09,16,17.00
2007,07,18,09,17,17.10
2007,07,18,09,18,17.10
2007,07,18,09,19,17.10
2007,07,18,09,20,17.10
2007,07,18,09,21,17.10
2007,07,18,09,22,17.10
2007,07,18,09,23,17.20
2007,07,18,09,24,17.20
2007,07,18,09,25,17.20
2007,07,18,09,26,17.20
2007,07,18,09,27,17.20
2007,07,18,09,28,17.30
2007,07,18,09,29,17.30
2007,07,18,09,30,17.30
2007,07,18,09,31,17.30
2007,07,18,09,32,17.30
2007,07,18,09,33,17.40
2007,07,18,09,34,17.40
2007,07,18,09,35,17.40
2007,07,18,09,36,17.40
2007,07,18,09,37,17.40
2007,07,18,09,38,17.50
2007,07,18,09,39,17.50
2007,07,18,09,40,17.50
2007,07,18,09,41,17.50
2007,07,18,09,42,17.50
2007,07,18,09,43,17.50
2007,07,18,09,44,17.50
2007,07,18,09,45,17.60
2007,07,18,09,46,17.60
2007,07,18,09,47,17.60
2007,07,18,09,48,17.60
2007,07,18,09,49,17.60
2007,07,18,09,50,17.60
2007,07,18,09,51,17.70
2007,07,18,09,52,17.70
2007,07,18,09,53,17.70
2007,07,18,09,54,17.70
2007,07,18,09,55,17.70
2007,07,18,09,56,17.70
2007,07,18,09,57,17.70
2007,07,18,09,58,17.70
2007,07,18,09,59,17.70
2007,07,18,10,00,17.70
2007,07,18,10,01,17.70
2007,07,18,10,02,17.70
2007,07,18,10,03,17.70
2007,07,18,10,04,17.70
2007,07,18,10,05,17.70
2007,07,18,10,06,17.80
2007,07,18,10,07,17.80
2007,07,18,10,08,17.80
2007,07,18,10,09,17.80
2007,07,18,10,10,17.90
2007,07,18,10,11,17.90
2007,07,18,10,12,17.90
2007,07,18,10,13,18.00
2007,07,18,10,14,18.00
2007,07,18,10,15,18.00
2007,07,18,10,16,18.10
2007,07,18,10,17,18.10
2007,07,18,10,18,18.10
2007,07,18,10,19,18.10
2007,07,18,10,20,18.10
2007,07,18,10,21,18.10
2007,07,18,10,22,18.10
2007,07,18,10,23,18.20
2007,07,18,10,24,18.20
2007,07,18,10,25,18.20
2007,07,18,10,26,18.20
2007,07,18,10,27,18.20
2007,07,18,10,28,18.20
2007,07,18,10,29,18.20
2007,07,18,10,30,18.20
2007,07,18,10,31,18.20
2007,07,18,10,32,18.20
2007,07,18,10,33,18.20
2007,07,18,10,34,18.20
2007,07,18,10,35,18.20
2007,07,18,10,36,18.20
2007,07,18,10,37,18.20
2007,07,18,10,38,18.20
2007,07,18,10,39,18.20
2007,07,18,10,40,18.20
2007,07,18,10,41,18.20
2007,07,18,10,42,18.20
2007,07,18,10,43,18.20
2007,07,18,10,44,18.20
2007,07,18,10,45,18.30
2007,07,18,10,46,18.30
2007,07,18,10,47,18.20
2007,07,18,10,48,18.30
2007,07,18,10,49,18.30
2007,07,18,10,50,18.30
2007,07,18,10,51,18.30
2007,07,18,10,52,18.30
2007,07,18,10,53,18.30
2007,07,18,10,54,18.30
2007,07,18,10,55,18.30
2007,07,18,10,56,18.30
2007,07,18,10,57,18.30
2007,07,18,10,58,18.30
2007,07,18,10,59,18.30
2007,07,18,11,00,18.30
2007,07,18,11,01,18.30
2007,07,18,11,02,18.30
2007,07,18,11,03,18.30
2007,07,18,11,04,18.30
2007,07,18,11,05,18.30
2007,07,18,11,06,18.30
2007,07,18,11,07,18.30
2007,07,18,11,08,18.30
2007,07,18,11,09,18.30
2007,07,18,11,10,18.30
2007,07,18,11,11,18.30
2007,07,18,11,12,18.30
2007,07,18,11,13,18.20
2007,07,18,11,14,18.20
2007,07,18,11,15,18.10
2007,07,18,11,16,18.10
2007,07,18,11,17,18.00
2007,07,18,11,18,17.90
2007,07,18,11,19,17.90
2007,07,18,11,20,17.80
2007,07,18,11,21,17.80
2007,07,18,11,22,17.80
2007,07,18,11,23,17.80
2007,07,18,11,24,17.80
2007,07,18,11,25,17.80
2007,07,18,11,26,17.80
2007,07,18,11,27,17.80
2007,07,18,11,28,17.80
2007,07,18,11,29,17.80
2007,07,18,11,30,17.80
2007,07,18,11,31,17.90
2007,07,18,11,32,17.90
2007,07,18,11,33,17.90
2007,07,18,11,34,17.90
2007,07,18,11,35,17.90
2007,07,18,11,36,17.90
2007,07,18,11,37,17.80
2007,07,18,11,38,17.80
2007,07,18,11,39,17.80
2007,07,18,11,40,17.90
2007,07,18,11,41,17.90
2007,07,18,11,42,17.90
2007,07,18,11,43,17.90
2007,07,18,11,44,17.90
2007,07,18,11,45,17.90
2007,07,18,11,46,17.90
2007,07,18,11,47,17.90
2007,07,18,11,48,18.00
2007,07,18,11,49,18.00
2007,07,18,11,50,18.00
2007,07,18,11,51,18.00
2007,07,18,11,52,18.00
2007,07,18,11,53,18.00
2007,07,18,11,54,18.00
2007,07,18,11,55,18.00
2007,07,18,11,56,18.00
2007,07,18,11,57,18.00
2007,07,18,11,58,17.90
2007,07,18,11,59,17.90
2007,07,18,12,00,17.90
2007,07,18,12,01,17.90
2007,07,18,12,02,17.90
2007,07,18,12,03,17.90
2007,07,18,12,04,17.90
2007,07,18,12,05,17.90
2007,07,18,12,06,17.90
2007,07,18,12,07,17.90
2007,07,18,12,08,17.90
2007,07,18,12,09,17.90
2007,07,18,12,10,17.90
2007,07,18,12,11,17.90
2007,07,18,12,12,17.90
2007,07,18,12,13,17.90
2007,07,18,12,14,17.90
2007,07,18,12,15,17.90
2007,07,18,12,16,17.90
2007,07,18,12,17,17.80
2007,07,18,12,18,17.80
2007,07,18,12,19,17.80
2007,07,18,12,20,17.80
2007,07,18,12,21,17.80
2007,07,18,12,22,17.80
2007,07,18,12,23,17.80
2007,07,18,12,24,17.80
2007,07,18,12,25,17.80
2007,07,18,12,26,17.80
2007,07,18,12,27,17.90
2007,07,18,12,28,17.90
2007,07,18,12,29,17.90
2007,07,18,12,30,18.00
2007,07,18,12,31,18.00
2007,07,18,12,32,18.00
2007,07,18,12,33,18.00
2007,07,18,12,34,17.90
2007,07,18,12,35,17.90
2007,07,18,12,36,17.90
2007,07,18,12,37,17.90
2007,07,18,12,38,17.90
2007,07,18,12,39,17.90
2007,07,18,12,40,17.90
2007,07,18,12,41,17.90
2007,07,18,12,42,17.90
2007,07,18,12,43,17.90
2007,07,18,12,44,17.90
2007,07,18,12,45,17.90
2007,07,18,12,46,17.90
2007,07,18,12,47,17.90
2007,07,18,12,48,17.90
2007,07,18,12,49,17.90
2007,07,18,12,50,17.90
2007,07,18,12,51,17.90
2007,07,18,12,52,17.90
2007,07,18,12,53,17.90
2007,07,18,12,54,17.90
2007,07,18,12,55,17.90
2007,07,18,12,56,17.90
2007,07,18,12,57,17.90
2007,07,18,12,58,17.90
2007,07,18,12,59,17.90
2007,07,18,13,00,17.90
2007,07,18,13,01,17.90
2007,07,18,13,02,17.80
2007,07,18,13,03,17.80
2007,07,18,13,04,17.80
2007,07,18,13,05,17.80
2007,07,18,13,06,17.80
2007,07,18,13,07,17.80
2007,07,18,13,08,17.80
2007,07,18,13,09,17.80
2007,07,18,13,10,17.80
2007,07,18,13,11,17.80
2007,07,18,13,12,17.80
2007,07,18,13,13,17.80
2007,07,18,13,14,17.80
2007,07,18,13,15,17.80
2007,07,18,13,16,17.80
2007,07,18,13,17,17.70
2007,07,18,13,18,17.70
2007,07,18,13,19,17.70
2007,07,18,13,20,17.70
2007,07,18,13,21,17.70
2007,07,18,13,22,17.70
2007,07,18,13,23,17.70
2007,07,18,13,24,17.70
2007,07,18,13,25,17.70
2007,07,18,13,26,17.70
2007,07,18,13,27,17.60
2007,07,18,13,28,17.60
2007,07,18,13,29,17.60
2007,07,18,13,30,17.60
2007,07,18,13,31,17.50
2007,07,18,13,32,17.40
2007,07,18,13,33,17.40
2007,07,18,13,34,17.40
2007,07,18,13,35,17.40
2007,07,18,13,36,17.40
2007,07,18,13,37,17.40
2007,07,18,13,38,17.40
2007,07,18,13,39,17.40
2007,07,18,13,40,17.30
2007,07,18,13,41,17.30
2007,07,18,13,42,17.30
2007,07,18,13,43,17.30
2007,07,18,13,44,17.30
2007,07,18,13,45,17.30
2007,07,18,13,46,17.20
2007,07,18,13,47,17.20
2007,07,18,13,48,17.10
2007,07,18,13,49,17.10
2007,07,18,13,50,17.10
2007,07,18,13,51,17.00
2007,07,18,13,52,17.00
2007,07,18,13,53,16.90
2007,07,18,13,54,16.90
2007,07,18,13,55,16.90
2007,07,18,13,56,16.90
2007,07,18,13,57,16.90
2007,07,18,13,58,16.80
2007,07,18,13,59,16.80
2007,07,18,14,00,16.70
2007,07,18,14,01,16.70
2007,07,18,14,02,16.70
2007,07,18,14,03,16.60
2007,07,18,14,04,16.60
2007,07,18,14,05,16.60
2007,07,18,14,06,16.60
2007,07,18,14,07,16.60
2007,07,18,14,08,16.60
2007,07,18,14,09,16.60
2007,07,18,14,10,16.50
2007,07,18,14,11,16.50
2007,07,18,14,12,16.50
2007,07,18,14,13,16.50
2007,07,18,14,14,16.40
2007,07,18,14,15,16.40
2007,07,18,14,16,16.40
2007,07,18,14,17,16.40
2007,07,18,14,18,16.40
2007,07,18,14,19,16.40
2007,07,18,14,20,16.30
2007,07,18,14,21,16.30
2007,07,18,14,22,16.30
2007,07,18,14,23,16.30
2007,07,18,14,24,16.30
2007,07,18,14,25,16.30
2007,07,18,14,26,16.30
2007,07,18,14,27,16.30
2007,07,18,14,28,16.30
2007,07,18,14,29,16.30
2007,07,18,14,30,16.30
2007,07,18,14,31,16.20
2007,07,18,14,32,16.20
2007,07,18,14,33,16.20
2007,07,18,14,34,16.30
2007,07,18,14,35,16.30
2007,07,18,14,36,16.30
2007,07,18,14,37,16.30
2007,07,18,14,38,16.30
2007,07,18,14,39,16.30
2007,07,18,14,40,16.30
2007,07,18,14,41,16.30
2007,07,18,14,42,16.30
2007,07,18,14,43,16.30
2007,07,18,14,44,16.30
2007,07,18,14,45,16.30
2007,07,18,14,46,16.30
2007,07,18,14,47,16.30
2007,07,18,14,48,16.40
2007,07,18,14,49,16.40
2007,07,18,14,50,16.40
2007,07,18,14,51,16.40
2007,07,18,14,52,16.40
2007,07,18,14,53,16.40
2007,07,18,14,54,16.50
2007,07,18,14,55,16.50
2007,07,18,14,56,16.40
2007,07,18,14,57,16.40
2007,07,18,14,58,16.40
2007,07,18,14,59,16.40
2007,07,18,15,00,16.40
2007,07,18,15,01,16.40
2007,07,18,15,02,16.40
2007,07,18,15,03,16.40
2007,07,18,15,04,16.40
2007,07,18,15,05,16.40
2007,07,18,15,06,16.40
2007,07,18,15,07,16.40
2007,07,18,15,08,16.40
2007,07,18,15,09,16.40
2007,07,18,15,10,16.30
2007,07,18,15,11,16.40
2007,07,18,15,12,16.40
2007,07,18,15,13,16.40
2007,07,18,15,14,16.40
2007,07,18,15,15,16.40
2007,07,18,15,16,16.40
2007,07,18,15,17,16.40
2007,07,18,15,18,16.40
2007,07,18,15,19,16.40
2007,07,18,15,20,16.40
2007,07,18,15,21,16.40
2007,07,18,15,22,16.40
2007,07,18,15,23,16.40
2007,07,18,15,24,16.50
2007,07,18,15,25,16.50
2007,07,18,15,26,16.50
2007,07,18,15,27,16.60
2007,07,18,15,28,16.60
2007,07,18,15,29,16.60
2007,07,18,15,30,16.60
2007,07,18,15,31,16.50
2007,07,18,15,32,16.50
2007,07,18,15,33,16.50
2007,07,18,15,34,16.50
2007,07,18,15,35,16.50
2007,07,18,15,36,16.50
2007,07,18,15,37,16.60
2007,07,18,15,38,16.60
2007,07,18,15,39,16.60
2007,07,18,15,40,16.60
2007,07,18,15,41,16.60
2007,07,18,15,42,16.60
2007,07,18,15,43,16.60
2007,07,18,15,44,16.60
2007,07,18,15,45,16.60
2007,07,18,15,46,16.60
2007,07,18,15,47,16.60
2007,07,18,15,48,16.60
2007,07,18,15,49,16.60
2007,07,18,15,50,16.60
2007,07,18,15,51,16.60
2007,07,18,15,52,16.60
2007,07,18,15,53,16.60
2007,07,18,15,54,16.60
2007,07,18,15,55,16.60
2007,07,18,15,56,16.60
2007,07,18,15,57,16.60
2007,07,18,15,58,16.60
2007,07,18,15,59,16.60
2007,07,18,16,00,16.60
2007,07,18,16,01,16.60
2007,07,18,16,02,16.60
2007,07,18,16,03,16.60
2007,07,18,16,04,16.60
2007,07,18,16,05,16.70
2007,07,18,16,06,16.70
2007,07,18,16,07,16.70
2007,07,18,16,08,16.70
2007,07,18,16,09,16.70
2007,07,18,16,10,16.70
2007,07,18,16,11,16.70
2007,07,18,16,12,16.70
2007,07,18,16,13,16.70
2007,07,18,16,14,16.80
2007,07,18,16,15,16.80
2007,07,18,16,16,16.80
2007,07,18,16,17,16.80
2007,07,18,16,18,16.80
2007,07,18,16,19,16.80
2007,07,18,16,20,16.80
2007,07,18,16,21,16.80
2007,07,18,16,22,16.80
2007,07,18,16,23,16.90
2007,07,18,16,24,16.90
2007,07,18,16,25,16.90
2007,07,18,16,26,17.00
2007,07,18,16,27,17.00
2007,07,18,16,28,17.00
2007,07,18,16,29,17.00
2007,07,18,16,30,17.10
2007,07,18,16,31,17.10
2007,07,18,16,32,17.10
2007,07,18,16,33,17.00
2007,07,18,16,34,17.00
2007,07,18,16,35,17.00
2007,07,18,16,36,17.00
2007,07,18,16,37,17.00
2007,07,18,16,38,17.00
2007,07,18,16,39,17.00
2007,07,18,16,40,17.00
2007,07,18,16,41,17.00
2007,07,18,16,42,17.00
2007,07,18,16,43,17.00
2007,07,18,16,44,17.00
2007,07,18,16,45,17.00
2007,07,18,16,46,17.00
2007,07,18,16,47,17.00
2007,07,18,16,48,17.10
2007,07,18,16,49,17.10
2007,07,18,16,50,17.10
2007,07,18,16,51,17.10
2007,07,18,16,52,17.10
2007,07,18,16,53,17.10
2007,07,18,16,54,17.10
2007,07,18,16,55,17.10
2007,07,18,16,56,17.10
2007,07,18,16,57,17.10
2007,07,18,16,58,17.10
2007,07,18,16,59,17.00
2007,07,18,17,00,17.00
2007,07,18,17,01,17.00
2007,07,18,17,02,17.00
2007,07,18,17,03,17.00
2007,07,18,17,04,16.90
2007,07,18,17,05,16.90
2007,07,18,17,06,16.90
2007,07,18,17,07,16.90
2007,07,18,17,08,16.90
2007,07,18,17,09,16.90
2007,07,18,17,10,16.90
2007,07,18,17,11,16.90
2007,07,18,17,12,16.90
2007,07,18,17,13,16.90
2007,07,18,17,14,17.00
2007,07,18,17,15,17.00
2007,07,18,17,16,17.00
2007,07,18,17,17,17.00
2007,07,18,17,18,17.10
2007,07,18,17,19,17.10
2007,07,18,17,20,17.10
2007,07,18,17,21,17.10
2007,07,18,17,22,17.20
2007,07,18,17,23,17.20
2007,07,18,17,24,17.30
2007,07,18,17,25,17.30
2007,07,18,17,26,17.30
2007,07,18,17,27,17.30
2007,07,18,17,28,17.30
2007,07,18,17,29,17.30
2007,07,18,17,30,17.30
2007,07,18,17,31,17.30
2007,07,18,17,32,17.30
2007,07,18,17,33,17.30
2007,07,18,17,34,17.30
2007,07,18,17,35,17.30
2007,07,18,17,36,17.30
2007,07,18,17,37,17.30
2007,07,18,17,38,17.30
2007,07,18,17,39,17.30
2007,07,18,17,40,17.30
2007,07,18,17,41,17.30
2007,07,18,17,42,17.30
2007,07,18,17,43,17.30
2007,07,18,17,44,17.30
2007,07,18,17,45,17.30
2007,07,18,17,46,17.30
2007,07,18,17,47,17.30
2007,07,18,17,48,17.30
2007,07,18,17,49,17.30
2007,07,18,17,50,17.30
2007,07,18,17,51,17.30
2007,07,18,17,52,17.20
2007,07,18,17,53,17.20
2007,07,18,17,54,17.20
2007,07,18,17,55,17.20
2007,07,18,17,56,17.10
2007,07,18,17,57,17.10
2007,07,18,17,58,17.10
2007,07,18,17,59,17.10
2007,07,18,18,00,17.10
2007,07,18,18,01,17.10
2007,07,18,18,02,17.10
2007,07,18,18,03,17.10
2007,07,18,18,04,17.10
2007,07,18,18,05,17.10
2007,07,18,18,06,17.10
2007,07,18,18,07,17.10
2007,07,18,18,08,17.10
2007,07,18,18,09,17.10
2007,07,18,18,10,17.10
2007,07,18,18,11,17.10
2007,07,18,18,12,17.20
2007,07,18,18,13,17.20
2007,07,18,18,14,17.10
2007,07,18,18,15,17.10
2007,07,18,18,16,17.10
2007,07,18,18,17,17.10
2007,07,18,18,18,17.10
2007,07,18,18,19,17.10
2007,07,18,18,20,17.10
2007,07,18,18,21,17.10
2007,07,18,18,22,17.10
2007,07,18,18,23,17.10
2007,07,18,18,24,17.10
2007,07,18,18,25,17.10
2007,07,18,18,26,17.10
2007,07,18,18,27,17.10
2007,07,18,18,28,17.10
2007,07,18,18,29,17.10
2007,07,18,18,30,17.10
2007,07,18,18,31,17.10
2007,07,18,18,32,17.00
2007,07,18,18,33,17.00
2007,07,18,18,34,17.00
2007,07,18,18,35,17.00
2007,07,18,18,36,17.00
2007,07,18,18,37,17.00
2007,07,18,18,38,16.90
2007,07,18,18,39,16.90
2007,07,18,18,40,16.90
2007,07,18,18,41,16.90
2007,07,18,18,42,16.90
2007,07,18,18,43,16.80
2007,07,18,18,44,16.80
2007,07,18,18,45,16.80
2007,07,18,18,46,16.80
2007,07,18,18,47,16.80
2007,07,18,18,48,16.80
2007,07,18,18,49,16.80
2007,07,18,18,50,16.80
2007,07,18,18,51,16.80
2007,07,18,18,52,16.80
2007,07,18,18,53,16.70
2007,07,18,18,54,16.70
2007,07,18,18,55,16.70
2007,07,18,18,56,16.70
2007,07,18,18,57,16.70
2007,07,18,18,58,16.70
2007,07,18,18,59,16.70
2007,07,18,19,00,16.70
2007,07,18,19,01,16.70
2007,07,18,19,02,16.70
2007,07,18,19,03,16.70
2007,07,18,19,04,16.70
2007,07,18,19,05,16.70
2007,07,18,19,06,16.70
2007,07,18,19,07,16.70
2007,07,18,19,08,16.70
2007,07,18,19,09,16.70
2007,07,18,19,10,16.70
2007,07,18,19,11,16.70
2007,07,18,19,12,16.70
2007,07,18,19,13,16.70
2007,07,18,19,14,16.70
2007,07,18,19,15,16.70
2007,07,18,19,16,16.80
2007,07,18,19,17,16.80
2007,07,18,19,18,16.80
2007,07,18,19,19,16.80
2007,07,18,19,20,16.70
2007,07,18,19,21,16.70
2007,07,18,19,22,16.70
2007,07,18,19,23,16.70
2007,07,18,19,24,16.70
2007,07,18,19,25,16.70
2007,07,18,19,26,16.70
2007,07,18,19,27,16.70
2007,07,18,19,28,16.70
2007,07,18,19,29,16.60
2007,07,18,19,30,16.60
2007,07,18,19,31,16.60
2007,07,18,19,32,16.60
2007,07,18,19,33,16.60
2007,07,18,19,34,16.60
2007,07,18,19,35,16.60
2007,07,18,19,36,16.60
2007,07,18,19,37,16.60
2007,07,18,19,38,16.60
2007,07,18,19,39,16.60
2007,07,18,19,40,16.60
2007,07,18,19,41,16.60
2007,07,18,19,42,16.60
2007,07,18,19,43,16.60
2007,07,18,19,44,16.60
2007,07,18,19,45,16.60
2007,07,18,19,46,16.60
2007,07,18,19,47,16.60
2007,07,18,19,48,16.60
2007,07,18,19,49,16.60
2007,07,18,19,50,16.60
2007,07,18,19,51,16.50
2007,07,18,19,52,16.50
2007,07,18,19,53,16.50
2007,07,18,19,54,16.50
2007,07,18,19,55,16.40
2007,07,18,19,56,16.40
2007,07,18,19,57,16.40
2007,07,18,19,58,16.40
2007,07,18,19,59,16.40
2007,07,18,20,00,16.40
2007,07,18,20,01,16.40
2007,07,18,20,02,16.40
2007,07,18,20,03,16.30
2007,07,18,20,04,16.30
2007,07,18,20,05,16.30
2007,07,18,20,06,16.20
2007,07,18,20,07,16.20
2007,07,18,20,08,16.20
2007,07,18,20,09,16.20
2007,07,18,20,10,16.10
2007,07,18,20,11,16.10
2007,07,18,20,12,16.10
2007,07,18,20,13,16.10
2007,07,18,20,14,16.10
2007,07,18,20,15,16.10
2007,07,18,20,16,16.10
2007,07,18,20,17,16.10
2007,07,18,20,18,16.10
2007,07,18,20,19,16.00
2007,07,18,20,20,16.00
2007,07,18,20,21,16.00
2007,07,18,20,22,16.00
2007,07,18,20,23,16.00
2007,07,18,20,24,16.00
2007,07,18,20,25,16.00
2007,07,18,20,26,15.90
2007,07,18,20,27,15.90
2007,07,18,20,28,15.90
2007,07,18,20,29,15.90
2007,07,18,20,30,15.90
2007,07,18,20,31,15.90
2007,07,18,20,32,15.90
2007,07,18,20,33,15.90
2007,07,18,20,34,15.90
2007,07,18,20,35,15.90
2007,07,18,20,36,15.90
2007,07,18,20,37,15.90
2007,07,18,20,38,15.90
2007,07,18,20,39,15.90
2007,07,18,20,40,15.90
2007,07,18,20,41,15.90
2007,07,18,20,42,15.90
2007,07,18,20,43,15.80
2007,07,18,20,44,15.80
2007,07,18,20,45,15.80
2007,07,18,20,46,15.80
2007,07,18,20,47,15.80
2007,07,18,20,48,15.80
2007,07,18,20,49,15.80
2007,07,18,20,50,15.80
2007,07,18,20,51,15.80
2007,07,18,20,52,15.80
2007,07,18,20,53,15.80
2007,07,18,20,54,15.80
2007,07,18,20,55,15.80
2007,07,18,20,56,15.80
2007,07,18,20,57,15.70
2007,07,18,20,58,15.70
2007,07,18,20,59,15.70
2007,07,18,21,00,15.70
2007,07,18,21,01,15.70
2007,07,18,21,02,15.70
2007,07,18,21,03,15.70
2007,07,18,21,04,15.70
2007,07,18,21,05,15.80
2007,07,18,21,06,15.80
2007,07,18,21,07,15.80
2007,07,18,21,08,15.80
2007,07,18,21,09,15.80
2007,07,18,21,10,15.80
2007,07,18,21,11,15.80
2007,07,18,21,12,15.80
2007,07,18,21,13,15.80
2007,07,18,21,14,15.70
2007,07,18,21,15,15.70
2007,07,18,21,16,15.70
2007,07,18,21,17,15.70
2007,07,18,21,18,15.70
2007,07,18,21,19,15.70
2007,07,18,21,20,15.60
2007,07,18,21,21,15.60
2007,07,18,21,22,15.60
2007,07,18,21,23,15.60
2007,07,18,21,24,15.60
2007,07,18,21,25,15.60
2007,07,18,21,26,15.60
2007,07,18,21,27,15.60
2007,07,18,21,28,15.60
2007,07,18,21,29,15.60
2007,07,18,21,30,15.60
2007,07,18,21,31,15.60
2007,07,18,21,32,15.60
2007,07,18,21,33,15.60
2007,07,18,21,34,15.60
2007,07,18,21,35,15.60
2007,07,18,21,36,15.60
2007,07,18,21,37,15.60
2007,07,18,21,38,15.60
2007,07,18,21,39,15.60
2007,07,18,21,40,15.60
2007,07,18,21,41,15.60
2007,07,18,21,42,15.60
2007,07,18,21,43,15.60
2007,07,18,21,44,15.60
2007,07,18,21,45,15.60
2007,07,18,21,46,15.60
2007,07,18,21,47,15.60
2007,07,18,21,48,15.50
2007,07,18,21,49,15.50
2007,07,18,21,50,15.50
2007,07,18,21,51,15.50
2007,07,18,21,52,15.50
2007,07,18,21,53,15.50
2007,07,18,21,54,15.50
2007,07,18,21,55,15.50
2007,07,18,21,56,15.50
2007,07,18,21,57,15.50
2007,07,18,21,58,15.40
2007,07,18,21,59,15.40
2007,07,18,22,00,15.40
2007,07,18,22,01,15.40
2007,07,18,22,02,15.40
2007,07,18,22,03,15.40
2007,07,18,22,04,15.30
2007,07,18,22,05,15.30
2007,07,18,22,06,15.30
2007,07,18,22,07,15.30
2007,07,18,22,08,15.30
2007,07,18,22,09,15.30
2007,07,18,22,10,15.30
2007,07,18,22,11,15.30
2007,07,18,22,12,15.20
2007,07,18,22,13,15.20
2007,07,18,22,14,15.20
2007,07,18,22,15,15.20
2007,07,18,22,16,15.20
2007,07,18,22,17,15.20
2007,07,18,22,18,15.20
2007,07,18,22,19,15.20
2007,07,18,22,20,15.20
2007,07,18,22,21,15.20
2007,07,18,22,22,15.20
2007,07,18,22,23,15.20
